Wind_Speed
13 12 12 13 13 13 14 14 14 14 14 13 13 12 12 12 11 11 10 9 8 7 7 7 7 7 7 7 8 7 7 7 7 6 5 5 5 5 4 4 3 3 3 3 4 4 4 4 4
13 13 13 13 14 14 15 15 14 13 13 13 13 13 13 12 11 11 10 10 9 8 8 7 7 7 7 7 7 7 7 7 6 5 5 5 4 4 3 3 3 2 2 3 3 3 3 4 4
12 12 12 13 14 15 15 15 15 15 14 14 14 13 12 12 11 10 10 9 9 9 8 7 8 8 8 7 7 6 6 5 5 4 4 4 3 2 2 2 2 2 1 2 2 2 3 3 4
13 13 12 13 14 15 15 16 16 15 13 13 13 13 12 11 11 10 10 9 9 9 9 9 8 7 7 7 7 6 6 5 4 3 3 3 2 2 1 1 2 2 1 1 2 2 3 3 4
12 13 13 13 14 15 15 16 16 15 14 13 12 12 12 11 10 10 10 10 9 9 9 9 8 7 7 7 6 5 5 4 3 3 3 2 1 1 1 1 2 2 1 2 2 3 3 4 4
11 12 13 14 14 15 15 15 15 14 13 13 13 13 12 11 11 10 10 9 9 9 8 8 7 7 7 6 5 5 4 4 3 2 1 1 1 1 2 3 3 2 2 3 3 3 4 5 5
12 12 13 14 14 15 15 15 15 14 13 13 13 13 12 11 11 10 10 9 9 8 7 8 7 7 6 5 5 4 3 2 2 1 0 1 1 2 2 3 3 3 4 4 4 4 5 5 6
11 11 13 14 14 14 14 14 13 12 12 12 11 12 11 11 11 11 10 9 8 8 7 7 7 6 6 5 4 4 2 2 1 2 2 2 2 3 3 4 4 4 5 5 5 6 6 7 7
10 11 12 13 14 13 13 13 12 11 11 10 10 11 11 11 11 10 10 10 9 8 8 7 7 6 6 5 4 3 3 3 2 2 2 3 3 3 4 4 5 5 5 5 6 6 7 8 7
10 11 11 12 13 13 12 12 11 11 11 10 10 11 10 10 10 10 10 10 9 9 8 7 7 6 5 5 4 4 4 3 3 3 3 3 3 4 4 5 5 5 6 6 7 8 7 8 8
9 9 10 11 12 12 12 13 11 11 11 10 10 11 10 9 9 9 9 9 9 9 8 8 7 5 5 5 5 4 4 4 3 3 4 4 4 5 5 5 5 6 6 7 8 8 8 8 8
10 10 11 11 11 12 12 12 11 10 10 10 9 10 10 9 9 9 9 9 9 9 9 8 7 6 5 5 5 5 4 4 4 4 4 4 5 5 6 6 6 7 7 7 8 8 9 9 9
11 11 12 13 13 12 12 11 10 10 10 9 9 9 9 9 9 8 8 8 8 8 8 8 8 6 5 5 5 5 5 4 4 3 4 4 5 6 6 6 7 7 8 8 8 9 9 10 9
10 11 12 14 14 13 13 12 10 10 10 9 9 8 8 9 9 8 8 8 8 7 8 7 7 6 6 6 6 6 5 5 5 4 4 5 6 6 7 7 7 7 8 9 9 10 10 10 10
8 9 10 13 13 12 12 11 11 10 10 8 8 8 8 8 8 8 9 8 8 7 8 7 7 7 6 6 7 6 5 5 5 5 5 6 7 7 7 7 8 8 9 10 10 10 10 10 11
5 6 8 10 11 11 10 11 11 10 9 8 8 8 8 8 8 8 8 8 8 8 8 7 7 7 7 7 7 6 6 6 6 6 6 7 7 7 8 8 9 9 9 10 11 12 11 11 12
2 4 7 9 9 9 9 9 9 9 9 8 8 8 8 7 8 8 8 8 8 8 8 7 8 7 7 6 7 7 7 7 7 7 7 7 8 8 8 8 9 9 10 11 11 12 13 13 13
1 3 5 7 8 8 8 8 7 8 9 9 8 8 8 7 7 7 7 8 8 8 8 8 8 7 7 7 7 7 8 8 8 7 8 7 8 8 8 9 9 9 10 11 12 13 13 14 14
0 2 4 5 6 7 7 6 7 8 8 9 8 7 8 7 7 7 7 8 8 8 8 8 8 8 7 7 7 7 8 8 8 7 8 8 9 9 9 9 9 10 11 12 12 12 13 13 14
2 3 4 4 5 6 6 5 5 6 8 9 9 8 8 7 7 7 7 8 8 8 9 9 8 8 8 8 8 7 8 8 8 8 8 9 9 10 10 10 10 10 11 12 12 13 13 13 13
4 5 5 5 5 6 6 5 5 6 6 8 9 9 8 7 7 7 7 8 8 8 9 9 8 8 9 8 8 8 8 9 9 9 10 10 10 10 11 11 11 11 11 12 12 12 13 13 13
5 6 6 6 6 7 8 7 7 7 7 8 8 8 8 8 8 8 8 8 8 8 8 9 9 9 9 9 9 10 10 9 10 10 11 11 11 11 11 11 11 11 12 12 12 12 13 13 14
7 7 7 7 7 8 8 9 8 8 8 8 7 8 8 9 9 9 9 9 8 9 9 9 9 10 10 10 10 11 11 11 12 11 12 12 12 12 11 12 12 13 13 13 12 13 13 14 15
9 9 9 8 8 9 10 10 8 7 8 8 8 8 8 9 9 9 9 9 9 9 10 10 10 10 10 10 11 12 12 12 13 12 13 13 13 12 13 13 14 14 13 13 13 12 13 13 14
11 11 11 11 10 11 11 10 7 7 8 8 9 9 9 9 9 10 9 9 9 9 10 10 10 10 10 11 12 13 13 12 12 13 13 13 12 13 14 14 15 15 14 14 13 12 13 13 13
12 12 12 13 13 12 11 10 8 8 9 9 9 10 10 10 10 10 9 10 9 10 10 10 10 10 11 12 12 13 14 14 14 14 13 13 13 14 14 14 15 16 15 15 14 13 13 14 14
13 13 13 14 14 14 12 11 9 10 11 11 11 11 10 10 10 10 10 10 10 10 10 10 11 11 11 12 13 14 14 14 14 14 14 14 14 14 15 16 15 15 16 16 15 14 14 15 14
15 15 16 16 16 15 13 11 11 12 13 13 12 11 10 10 11 11 10 10 10 10 10 10 11 11 12 13 13 13 14 14 14 15 14 14 15 15 16 16 16 15 16 16 16 15 14 15 15
18 17 18 17 17 16 16 14 13 14 14 14 13 12 12 12 11 11 11 11 10 10 10 11 11 12 13 13 13 14 14 15 15 15 15 15 16 16 17 17 16 16 16 17 16 16 15 16 16
20 19 19 18 17 17 17 15 15 15 15 14 14 13 13 12 12 11 11 10 10 10 11 12 12 13 13 14 14 14 15 15 16 16 16 16 17 17 18 18 17 17 17 17 17 16 16 16 16
Wind_Direction
77 78 75 72 70 68 66 62 59 63 62 59 59 60 59 59 56 55 56 59 61 59 60 65 75 80 79 78 79 84 91 97 97 97 98 107 114 118 121 128 135 143 154 167 170 182 187 195 203
78 80 76 71 69 68 66 62 59 60 60 58 58 58 57 58 56 55 56 58 62 65 65 67 71 73 76 75 77 84 93 98 102 102 101 105 116 126 132 133 139 144 164 182 185 194 204 207 212
80 80 74 70 68 65 62 60 59 59 58 58 57 56 55 54 53 54 57 58 60 65 68 70 73 68 70 71 76 82 89 94 100 105 108 108 117 136 143 157 173 175 185 185 192 193 211 224 232
82 81 74 71 67 64 61 60 59 58 58 58 57 56 54 52 53 57 58 59 62 62 63 67 71 72 72 76 80 82 82 83 88 92 98 108 119 142 173 201 215 221 193 178 190 199 217 237 240
83 81 74 70 68 64 63 62 60 56 57 58 58 59 56 55 58 62 61 60 62 65 62 64 67 72 77 78 77 80 83 84 83 84 87 101 128 162 215 229 226 224 226 223 220 230 236 241 236
81 79 74 69 68 67 65 63 63 61 61 60 60 60 59 58 59 61 61 60 59 63 62 64 65 67 68 70 72 70 77 81 84 89 87 80 208 229 246 237 234 236 241 244 249 249 240 239 238
83 78 71 70 70 66 63 62 64 62 64 64 63 62 60 58 58 58 60 59 55 56 57 58 57 60 59 55 57 61 66 67 58 45 350 273 283 280 266 255 256 255 251 253 260 254 249 245 241
81 75 70 68 66 62 63 63 61 59 62 63 63 62 59 59 57 55 55 55 51 50 49 50 49 50 53 53 48 52 55 39 18 348 322 291 280 285 277 266 266 266 254 253 259 260 256 253 249
81 73 67 62 61 61 62 61 60 61 63 58 56 57 57 58 56 53 51 47 46 44 45 45 46 45 47 46 36 27 25 13 1 335 303 288 285 282 279 272 264 264 259 254 258 263 258 255 252
81 69 61 61 58 56 58 56 56 60 59 58 55 54 54 54 51 51 51 45 40 41 42 39 42 42 41 33 23 3 1 356 350 333 311 293 285 278 276 272 266 267 262 256 258 260 259 258 255
71 67 62 60 57 54 54 51 51 58 58 58 55 51 49 49 46 45 45 42 35 35 38 38 40 38 31 22 16 359 346 342 335 325 308 297 287 277 271 269 266 263 256 255 257 258 260 252 251
68 70 68 59 53 53 50 45 42 48 48 46 46 46 42 41 43 42 38 36 34 32 30 31 29 24 18 9 359 352 342 331 326 319 309 298 291 285 276 274 268 260 255 255 260 260 256 250 248
67 69 64 61 54 52 49 44 39 38 40 38 36 38 37 33 35 34 36 32 28 27 27 24 19 10 4 360 354 350 343 327 322 318 317 307 295 289 283 283 274 262 256 256 260 260 259 257 252
66 66 64 59 54 52 46 40 40 42 42 40 36 30 32 29 27 27 27 22 20 22 22 20 19 12 5 358 352 348 340 332 331 333 325 314 303 291 285 283 277 267 260 261 260 259 260 259 255
68 66 59 55 50 52 48 44 44 44 40 37 29 23 25 27 27 25 22 17 17 19 17 15 13 10 10 6 2 3 355 343 335 330 318 310 306 296 289 284 280 277 272 267 264 262 264 262 260
75 64 49 46 45 47 47 43 36 35 34 31 26 23 21 26 26 25 23 22 20 19 16 13 10 7 5 1 0 357 350 342 333 328 320 311 308 304 297 289 285 282 278 273 269 269 270 265 263
96 64 47 43 40 42 38 36 30 27 27 25 24 23 15 15 19 23 23 21 17 13 12 11 10 6 4 358 353 350 343 340 335 331 327 320 313 308 303 295 288 284 280 276 273 271 270 267 264
107 47 41 38 38 35 35 30 26 24 19 20 24 19 14 11 9 14 18 15 11 9 7 6 5 0 359 355 348 340 337 334 333 331 332 326 321 316 309 301 293 285 281 279 277 274 271 270 266
159 23 29 29 29 25 24 23 21 16 11 12 16 14 8 9 4 2 7 7 5 4 4 2 359 355 352 349 346 337 334 334 334 333 331 327 323 318 311 305 301 292 287 284 283 278 273 272 270
268 316 347 349 1 5 10 15 10 4 3 2 4 5 4 6 3 357 359 358 357 359 359 357 352 348 346 346 344 340 338 335 335 333 331 328 325 319 311 308 306 300 294 290 286 279 276 272 269
275 294 314 317 325 341 347 357 357 353 349 350 351 352 353 357 354 347 347 348 349 350 351 350 344 344 344 341 339 335 334 333 331 327 325 326 323 316 313 310 306 303 300 293 288 284 280 275 272
259 277 296 306 311 323 334 336 339 337 337 337 341 346 349 350 352 346 345 345 345 345 345 344 343 342 343 341 337 331 327 327 325 322 322 325 325 319 313 311 309 306 305 298 290 283 280 276 273
258 266 281 300 307 316 332 335 335 323 329 333 336 339 341 343 345 342 340 340 341 341 342 342 341 341 341 336 332 329 327 327 326 323 321 320 323 323 320 315 310 307 305 300 293 286 282 280 275
254 262 273 285 295 310 325 326 330 326 325 326 324 326 330 333 334 334 333 331 332 336 338 341 340 336 336 334 329 328 329 326 325 322 320 318 318 319 321 318 313 310 309 306 298 288 285 283 280
253 261 273 279 290 304 311 314 322 324 327 324 321 320 323 328 332 330 330 332 329 332 335 337 336 334 332 331 328 326 327 327 324 322 320 321 321 320 320 318 315 314 309 305 299 291 288 284 283
255 262 274 285 293 299 298 300 308 314 323 322 318 319 320 323 326 325 328 330 329 329 333 335 336 335 332 331 329 328 327 327 326 323 319 321 322 322 320 317 315 312 307 301 297 290 286 283 284
253 261 271 280 287 291 293 296 299 306 315 318 317 320 323 323 324 325 324 323 325 326 328 329 330 330 329 327 326 327 328 329 328 324 321 320 320 319 318 315 313 312 308 302 297 296 291 287 288
252 261 270 275 280 285 289 293 300 301 305 310 313 317 319 323 325 322 320 319 319 320 322 325 326 326 325 328 327 329 329 330 328 325 322 320 319 320 319 316 313 311 309 306 300 296 293 291 290
255 262 269 273 274 280 284 291 297 297 299 301 305 309 312 315 315 317 322 322 317 317 320 324 326 325 323 325 326 327 328 329 327 324 324 322 320 319 319 319 315 310 309 309 305 295 291 291 291
254 261 267 270 273 280 286 290 293 295 295 295 297 301 305 310 310 313 317 321 320 321 323 324 324 324 325 326 324 325 328 329 327 326 324 322 321 319 317 316 313 309 308 309 307 303 298 293 292
Height
5884 5884 5884 5884 5883 5882 5880 5879 5878 5878 5878 5878 5877 5877 5876 5876 5876 5878 5876 5874 5874 5874 5873 5873 5873 5873 5873 5873 5873 5873 5873 5874 5875 5876 5877 5877 5878 5879 5880 5880 5881 5882 5883 5884 5884 5885 5886 5887 5888
5886 5886 5886 5886 5884 5883 5882 5881 5880 5880 5879 5879 5878 5877 5877 5876 5876 5876 5875 5875 5874 5874 5874 5874 5874 5874 5873 5873 5874 5874 5874 5875 5875 5876 5877 5878 5879 5879 5880 5881 5882 5882 5883 5884 5884 5885 5886 5887 5888
5888 5888 5889 5887 5885 5884 5884 5883 5882 5881 5881 5880 5879 5879 5878 5878 5877 5877 5876 5876 5876 5875 5875 5875 5875 5874 5874 5874 5875 5875 5875 5875 5876 5877 5877 5878 5879 5879 5880 5881 5882 5882 5883 5884 5884 5885 5886 5887 5887
5890 5891 5890 5889 5887 5886 5885 5884 5883 5883 5882 5882 5881 5880 5880 5879 5879 5878 5878 5877 5877 5877 5876 5876 5875 5875 5875 5875 5875 5876 5876 5876 5876 5877 5877 5878 5879 5879 5880 5881 5882 5882 5883 5884 5884 5885 5886 5886 5887
5893 5892 5891 5890 5889 5888 5887 5886 5885 5884 5884 5883 5883 5882 5881 5881 5880 5880 5879 5879 5878 5878 5877 5877 5876 5876 5876 5876 5876 5876 5876 5877 5877 5877 5877 5878 5879 5879 5880 5880 5881 5882 5882 5883 5884 5884 5885 5886 5886
5894 5894 5893 5891 5890 5889 5889 5888 5887 5886 5886 5885 5885 5884 5883 5883 5882 5881 5880 5880 5879 5879 5878 5877 5877 5876 5876 5876 5876 5877 5877 5877 5877 5877 5878 5878 5878 5879 5879 5880 5880 5881 5882 5882 5883 5884 5884 5885 5885
5896 5895 5894 5893 5892 5891 5891 5889 5888 5888 5888 5887 5887 5886 5885 5884 5883 5882 5882 5881 5881 5880 5879 5878 5877 5877 5877 5877 5877 5877 5877 5877 5877 5877 5877 5878 5878 5878 5878 5879 5880 5880 5881 5882 5882 5883 5883 5884 5884
5897 5897 5896 5895 5894 5893 5892 5891 5891 5890 5890 5889 5888 5888 5887 5886 5885 5884 5883 5882 5881 5881 5880 5879 5878 5878 5877 5877 5877 5877 5877 5877 5877 5877 5877 5877 5877 5877 5878 5878 5878 5879 5879 5880 5881 5881 5882 5882 5883
5899 5899 5897 5897 5896 5895 5894 5893 5892 5892 5891 5890 5890 5889 5889 5888 5886 5885 5884 5883 5882 5882 5881 5880 5879 5878 5878 5878 5877 5877 5876 5876 5876 5876 5876 5876 5876 5877 5877 5877 5877 5877 5878 5879 5879 5880 5880 5881 5881
5900 5900 5899 5898 5897 5896 5895 5894 5894 5893 5892 5892 5891 5891 5890 5889 5887 5886 5885 5884 5883 5882 5881 5880 5879 5879 5878 5878 5877 5876 5876 5876 5876 5875 5875 5875 5875 5876 5875 5875 5876 5876 5876 5877 5877 5878 5878 5879 5880
5901 5901 5900 5899 5898 5897 5896 5896 5895 5894 5894 5894 5893 5892 5891 5890 5889 5887 5886 5885 5884 5883 5881 5880 5879 5878 5878 5877 5877 5876 5875 5875 5875 5875 5874 5874 5874 5874 5874 5874 5874 5874 5874 5875 5875 5876 5876 5877 5878
5902 5902 5901 5900 5899 5898 5898 5897 5896 5896 5896 5895 5894 5892 5892 5891 5890 5888 5887 5886 5885 5883 5882 5881 5880 5879 5878 5877 5877 5876 5875 5875 5874 5874 5874 5874 5873 5873 5873 5872 5872 5872 5873 5873 5874 5874 5874 5875 5875
5903 5903 5902 5901 5900 5899 5899 5898 5897 5896 5896 5895 5894 5893 5892 5891 5890 5889 5888 5887 5885 5884 5883 5882 5880 5879 5878 5877 5876 5875 5874 5874 5873 5873 5873 5872 5872 5871 5871 5871 5870 5870 5871 5871 5872 5872 5872 5873 5873
5904 5904 5903 5902 5901 5900 5900 5899 5899 5898 5897 5896 5895 5894 5893 5892 5891 5889 5888 5887 5886 5884 5883 5882 5880 5879 5878 5877 5876 5874 5873 5873 5872 5872 5871 5871 5871 5870 5870 5869 5869 5869 5869 5869 5870 5870 5870 5871 5871
5905 5905 5905 5904 5902 5901 5901 5901 5900 5899 5898 5897 5896 5894 5893 5892 5891 5890 5888 5887 5886 5885 5883 5882 5880 5879 5878 5877 5876 5874 5873 5872 5872 5871 5870 5870 5869 5868 5868 5868 5867 5867 5867 5867 5867 5867 5868 5868 5869
5906 5906 5906 5905 5903 5903 5903 5902 5901 5900 5899 5897 5896 5895 5894 5893 5891 5890 5889 5887 5886 5885 5883 5882 5880 5879 5878 5877 5875 5874 5873 5872 5871 5870 5869 5868 5867 5866 5866 5866 5865 5865 5865 5865 5865 5865 5865 5865 5866
5907 5907 5906 5906 5904 5903 5903 5903 5902 5900 5899 5898 5896 5895 5894 5893 5892 5890 5889 5887 5886 5885 5883 5882 5880 5878 5877 5876 5875 5873 5872 5871 5870 5869 5867 5866 5865 5864 5864 5864 5863 5863 5863 5862 5862 5862 5862 5862 5862
5907 5907 5907 5906 5905 5904 5903 5903 5902 5901 5900 5899 5897 5896 5894 5893 5892 5890 5889 5888 5886 5885 5883 5882 5880 5879 5877 5876 5874 5873 5872 5870 5869 5867 5866 5865 5864 5863 5862 5861 5861 5860 5860 5859 5859 5858 5858 5858 5858
5907 5907 5907 5907 5905 5905 5904 5903 5902 5901 5900 5899 5897 5896 5894 5893 5892 5890 5889 5887 5886 5884 5883 5881 5880 5878 5877 5875 5873 5872 5871 5869 5868 5866 5865 5864 5862 5861 5860 5859 5859 5858 5857 5856 5855 5855 5854 5855 5855
5907 5907 5907 5907 5906 5905 5904 5903 5902 5901 5900 5899 5897 5896 5894 5893 5892 5890 5889 5887 5886 5884 5882 5881 5879 5878 5876 5875 5873 5872 5870 5869 5867 5865 5864 5862 5861 5859 5858 5857 5856 5855 5854 5853 5852 5852 5851 5851 5851
5907 5907 5906 5906 5906 5905 5904 5904 5903 5901 5900 5899 5897 5895 5894 5893 5891 5890 5888 5887 5885 5884 5882 5880 5879 5877 5875 5874 5872 5871 5869 5867 5866 5864 5863 5861 5859 5858 5856 5855 5854 5853 5851 5850 5849 5849 5848 5847 5847
5906 5906 5905 5905 5905 5904 5904 5903 5902 5900 5899 5898 5896 5895 5893 5892 5890 5889 5887 5886 5884 5883 5881 5880 5878 5876 5875 5873 5871 5870 5868 5866 5864 5863 5861 5859 5857 5855 5854 5852 5851 5850 5848 5847 5846 5845 5845 5844 5844
5904 5905 5904 5904 5904 5904 5903 5902 5902 5899 5898 5897 5896 5894 5893 5891 5890 5888 5887 5885 5884 5882 5880 5879 5877 5875 5873 5871 5870 5868 5866 5865 5863 5861 5859 5857 5855 5853 5851 5850 5848 5847 5845 5843 5842 5841 5841 5840 5840
5903 5903 5903 5903 5903 5903 5902 5901 5900 5898 5897 5896 5895 5893 5891 5890 5889 5887 5886 5884 5883 5881 5879 5877 5876 5874 5872 5870 5868 5867 5865 5863 5861 5859 5856 5854 5853 5851 5849 5847 5845 5843 5842 5840 5838 5837 5837 5837 5836
5901 5902 5902 5901 5901 5901 5900 5899 5900 5898 5896 5895 5893 5892 5890 5889 5887 5886 5884 5883 5881 5880 5878 5876 5874 5873 5871 5869 5867 5865 5863 5860 5858 5857 5855 5852 5850 5849 5847 5845 5843 5841 5839 5837 5835 5834 5833 5833 5832
5899 5900 5901 5900 5899 5899 5898 5897 5898 5897 5895 5893 5892 5890 5889 5887 5886 5884 5883 5881 5879 5878 5876 5875 5873 5871 5869 5867 5865 5863 5861 5858 5856 5854 5852 5850 5848 5846 5844 5842 5840 5838 5836 5834 5832 5830 5830 5829 5828
5896 5897 5898 5898 5897 5897 5896 5896 5896 5895 5893 5892 5890 5889 5887 5886 5884 5883 5881 5879 5878 5876 5874 5873 5871 5869 5867 5865 5863 5861 5859 5856 5854 5852 5850 5848 5846 5843 5841 5839 5837 5834 5832 5831 5829 5827 5826 5825 5824
5894 5894 5895 5894 5894 5894 5894 5894 5894 5893 5891 5890 5888 5887 5886 5884 5882 5881 5879 5877 5876 5874 5873 5871 5869 5867 5865 5863 5861 5859 5856 5854 5851 5849 5847 5845 5842 5840 5838 5836 5833 5831 5829 5827 5825 5824 5822 5821 5820
5891 5891 5891 5891 5891 5891 5891 5893 5891 5890 5889 5887 5886 5885 5884 5882 5880 5878 5877 5875 5874 5872 5871 5869 5867 5865 5863 5861 5859 5857 5854 5852 5849 5846 5844 5842 5839 5837 5835 5832 5830 5828 5825 5823 5821 5820 5818 5817 5816
5887 5887 5888 5888 5888 5888 5888 5891 5888 5887 5886 5885 5884 5883 5881 5880 5878 5876 5875 5873 5871 5870 5868 5867 5865 5863 5861 5858 5856 5854 5852 5849 5847 5844 5841 5839 5836 5834 5831 5829 5826 5824 5822 5820 5818 5816 5814 5813 5812